Theta_e
310 310 311 311 311 310 309 308 307 307 308 309 307 305 303 302 302 302 300 305 297 291 293 296 297 295 297 295 291 297 293 294 291 288 288 287 287 290 289 289 285 284 283 285 287 286 283 293 295 292 296 307 307 306
309 309 310 310 310 310 308 307 307 307 308 309 307 305 304 302 302 302 298 302 300 292 294 300 300 301 300 300 295 294 290 292 293 288 290 289 287 291 289 285 291 284 285 282 285 286 289 292 295 298 304 305 304 303
309 309 309 309 310 309 308 307 306 307 308 308 306 305 304 303 302 302 302 299 296 292 295 299 300 305 306 304 305 290 294 297 299 298 291 289 286 290 286 287 287 288 289 286 287 288 288 293 295 298 303 303 304 303
308 308 309 309 309 309 307 306 306 307 308 308 306 305 304 303 303 302 299 301 299 294 288 297 304 302 307 307 305 303 300 298 300 298 292 290 288 291 289 288 287 287 287 285 288 289 291 290 294 296 299 300 299 300
307 308 308 308 309 308 306 306 306 307 308 307 305 304 304 303 303 303 302 302 301 295 291 295 301 306 306 307 305 305 301 295 297 297 293 290 292 291 292 290 289 286 284 284 284 289 289 290 294 296 295 297 298 298
306 307 307 308 308 307 306 306 306 307 307 306 305 304 303 302 301 300 299 304 302 299 291 289 302 303 305 306 305 305 303 297 297 299 295 295 294 293 288 288 291 290 291 293 289 291 293 294 295 296 294 295 296 297
306 307 307 308 307 306 306 306 306 308 306 305 304 302 302 301 302 297 298 300 300 301 292 289 294 304 304 305 308 306 304 300 298 301 297 296 294 294 291 286 289 291 293 294 295 292 290 292 290 294 294 295 296 296
306 307 307 306 305 305 306 306 307 306 305 303 302 302 302 302 302 298 305 303 301 296 295 290 292 299 305 301 301 309 303 302 302 300 297 294 294 293 288 287 290 293 294 293 291 292 291 292 292 292 294 294 293 293
305 305 304 304 305 305 306 307 306 304 302 301 301 301 302 300 296 302 304 303 302 297 291 292 290 293 305 302 303 303 305 293 303 297 294 294 290 287 288 288 290 293 292 291 290 291 290 289 288 291 291 291 291 292
304 304 304 304 305 305 306 305 303 301 301 300 300 298 294 299 304 305 300 295 293 294 294 293 298 295 301 300 300 300 303 295 292 296 296 291 288 293 292 293 294 295 294 293 289 287 288 289 289 290 291 292 291 292
304 304 304 305 305 306 304 302 301 300 299 298 296 297 304 301 302 299 294 293 294 291 295 297 298 297 304 296 296 299 293 294 289 294 291 290 288 291 294 294 295 296 297 296 295 293 292 292 291 291 292 292 293 294
303 304 304 305 306 305 303 301 300 297 298 297 299 301 304 300 296 292 291 295 293 291 299 297 299 302 303 305 298 297 292 293 287 298 291 288 293 293 294 294 296 297 296 296 295 293 293 294 294 293 292 292 293 295
302 304 304 305 306 303 302 300 299 299 300 302 296 294 293 294 287 285 284 289 292 298 301 301 298 303 303 302 298 295 289 290 298 291 289 294 294 295 295 295 295 296 296 295 294 295 295 294 294 294 293 294 296 294
302 302 303 304 304 303 301 300 299 300 297 294 290 285 287 287 289 291 293 296 301 302 302 302 299 300 303 299 300 290 292 294 289 286 287 296 295 294 295 295 295 294 294 294 294 294 294 293 293 294 296 296 296 295
302 302 303 303 304 302 301 299 299 299 296 290 292 285 288 294 298 299 300 300 302 304 302 300 300 301 299 296 299 295 289 287 289 290 295 297 297 296 295 295 295 295 297 297 298 298 298 298 296 296 297 298 297 296
301 301 302 304 303 301 300 299 298 297 294 291 291 289 293 293 294 296 298 299 304 302 304 302 297 295 294 296 292 290 289 288 294 298 298 297 296 295 295 296 296 298 298 297 297 296 297 297 296 295 297 297 297 296
300 298 302 303 301 300 298 295 295 291 290 289 289 294 294 295 296 298 301 301 306 302 297 299 291 291 299 293 291 298 295 297 299 298 297 297 296 295 295 296 297 299 298 298 298 297 297 297 297 296 294 295 296 296
296 298 301 301 299 297 295 295 292 290 287 291 289 293 295 295 295 299 300 302 303 302 300 296 300 293 292 289 294 300 301 299 301 298 295 296 296 296 297 298 299 299 298 298 297 298 297 296 295 294 295 294 294 294
297 299 299 298 297 294 290 291 294 288 290 293 295 295 295 296 299 300 302 304 305 306 304 301 295 294 296 301 299 301 303 298 296 296 296 296 297 297 298 298 300 299 298 298 297 297 297 297 296 296 296 295 293 293
299 300 299 298 299 294 290 291 297 291 289 294 295 294 295 296 301 300 301 302 302 302 297 296 297 301 303 304 307 306 303 300 299 294 293 295 298 298 297 298 297 298 298 298 298 295 297 297 297 297 297 295 294 294
297 298 298 298 294 294 293 293 292 293 294 293 298 297 295 298 297 298 300 304 301 298 297 300 302 305 308 309 310 309 303 301 300 297 295 296 298 298 297 297 298 297 297 298 296 295 296 297 298 298 296 296 297 296
296 298 295 296 292 292 291 295 293 296 295 295 296 297 294 294 296 299 302 299 298 299 301 302 305 306 305 305 306 308 305 303 302 300 298 298 297 298 297 298 297 296 296 296 297 295 296 297 299 299 299 299 298 299
297 296 294 292 288 288 288 297 290 292 289 292 296 292 292 294 299 303 298 300 301 306 307 306 307 308 307 307 307 306 305 302 299 301 301 302 301 299 301 299 297 296 296 297 298 298 298 295 297 300 300 299 299 298
297 292 289 288 289 287 293 290 294 292 293 291 290 289 293 296 301 297 294 299 302 306 305 305 306 305 306 305 305 304 304 305 301 303 304 300 301 301 301 299 299 299 299 300 300 300 300 300 297 300 300 299 298 297
287 288 288 285 290 287 286 287 289 290 288 290 289 291 295 299 293 292 293 299 302 303 304 305 305 304 303 305 307 307 307 305 302 299 302 304 303 302 301 301 300 300 300 298 298 299 299 300 300 300 299 299 299 298
282 288 285 287 288 287 288 286 288 289 290 290 291 297 299 295 290 289 296 301 303 304 305 305 305 304 301 302 303 304 307 308 307 304 303 304 305 301 300 299 297 298 300 300 298 298 298 299 299 299 299 297 290 298
283 285 290 294 292 292 290 292 294 292 289 289 294 293 293 288 288 295 302 304 305 306 308 308 308 303 301 303 306 309 310 309 308 307 307 305 308 308 304 300 298 300 301 300 300 299 298 298 299 299 299 300 299 299
288 289 285 289 290 292 288 289 289 289 292 298 297 290 289 290 291 300 303 306 306 308 306 306 307 306 306 305 307 307 308 309 309 306 306 306 307 308 308 307 306 293 303 304 303 303 302 301 301 300 300 300 300 301
287 292 291 288 289 290 290 289 292 297 301 299 293 289 287 294 300 302 305 307 307 302 301 303 306 306 306 303 302 302 307 308 303 299 298 298 300 302 308 309 307 305 305 304 290 298 305 305 305 304 304 304 304 304
287 293 289 288 288 288 294 299 298 302 299 298 298 297 297 297 300 306 306 306 305 304 304 305 305 304 303 302 299 300 301 302 307 304 300 299 300 304 305 306 309 307 307 306 306 304 287 299 296 305 304 305 305 305
293 292 289 290 290 296 300 303 303 300 298 296 297 298 297 300 303 305 306 306 306 307 305 304 304 304 303 301 301 300 299 299 300 301 299 303 305 306 305 307 310 311 310 309 309 308 306 304 305 304 303 304 304 302
291 290 289 288 292 300 301 299 295 295 295 296 297 300 300 299 297 301 303 306 305 302 296 301 302 300 302 301 300 302 293 297 296 296 296 299 300 304 307 307 308 309 309 308 307 308 307 306 304 304 304 304 304 304
292 292 292 293 292 291 292 291 292 293 295 295 297 299 299 298 295 302 307 308 305 302 300 299 299 301 301 300 299 299 295 298 291 286 286 285 285 289 300 309 310 309 306 306 306 307 307 306 306 305 306 307 305 304
Wind_Speed
19 19 20 19 16 14 12 9 10 10 12 7 5 4 3 2 2 5 3 1 3 5 11 8 6 11 9 7 5 11 9 4 3 6 5 5 4 6 5 4 8 6 8 6 7 6 4 22 14 6 8 8 5 13
19 19 19 20 19 15 12 10 9 10 11 6 6 6 5 4 2 4 4 4 3 5 9 16 19 20 20 19 11 5 4 5 3 4 3 4 4 5 10 3 8 3 4 5 5 4 8 15 10 11 6 6 12 14
20 20 19 19 19 17 11 9 8 10 10 8 7 7 6 5 3 5 4 3 4 4 9 8 4 8 8 14 12 5 3 5 5 3 3 2 5 2 4 4 5 8 4 3 5 1 9 13 11 12 7 11 15 16
20 20 19 19 18 15 10 10 9 11 9 9 8 7 7 7 6 5 5 4 1 3 4 2 4 8 7 9 13 17 8 6 7 4 2 2 3 2 2 3 2 4 8 7 4 4 7 12 13 11 11 15 16 15
19 20 19 19 17 11 10 10 9 12 9 10 8 7 8 7 5 6 7 6 6 3 5 10 19 5 5 8 12 13 11 7 4 3 2 1 1 4 2 3 2 3 4 3 3 9 3 7 11 11 13 12 16 20
20 19 19 18 12 10 10 11 10 10 9 9 8 6 5 6 4 5 4 3 4 5 3 5 8 8 5 9 11 12 7 5 4 4 1 2 1 3 3 2 3 7 6 5 1 4 8 10 13 12 13 12 14 18
19 18 17 12 9 9 10 10 10 9 10 9 6 4 5 6 6 5 5 4 3 3 3 5 6 3 5 6 3 3 7 3 3 4 2 2 2 2 2 4 11 11 4 4 3 4 5 12 7 11 14 15 19 17
18 14 7 6 7 9 9 8 9 10 9 6 4 4 6 7 7 6 3 14 7 3 3 4 6 6 2 6 3 1 2 3 4 2 3 3 2 2 1 5 9 5 4 7 11 11 9 9 11 11 11 15 18 16
11 8 7 7 8 8 8 7 11 9 6 2 2 7 6 4 3 0 8 10 4 1 2 3 3 4 1 6 4 1 2 2 1 1 2 3 3 3 4 9 9 10 5 9 10 11 10 11 10 12 13 16 19 17
12 10 10 9 9 8 8 12 10 6 4 1 4 4 4 4 8 11 4 4 3 3 4 6 6 6 5 7 2 3 2 2 2 3 1 1 1 5 4 3 5 6 9 8 9 7 9 11 10 11 14 14 15 15
12 11 11 11 9 6 12 11 9 7 3 3 5 3 4 4 4 4 4 6 6 5 5 5 7 8 1 7 4 3 3 2 3 2 3 2 1 3 4 2 2 3 7 8 9 11 11 11 12 13 15 17 16 18
13 11 11 11 9 14 14 12 10 4 1 3 4 1 3 5 4 5 4 4 6 5 7 5 4 4 2 3 2 2 2 2 2 2 3 2 2 2 3 4 4 7 9 11 12 13 13 13 14 15 13 13 15 16
14 11 11 12 12 14 13 12 8 6 5 2 2 4 4 5 6 7 7 6 5 6 5 5 3 2 4 4 3 2 3 2 3 2 3 1 5 4 3 6 7 9 10 11 13 12 14 14 13 15 14 13 15 14
13 11 11 9 12 14 14 11 8 5 2 3 4 5 7 7 7 6 7 3 2 3 3 2 4 3 1 4 1 2 1 3 4 1 2 2 5 5 5 7 7 10 10 10 12 14 15 15 14 14 15 13 14 15
14 14 12 14 16 17 14 11 5 2 3 4 5 6 8 6 2 3 4 4 5 3 3 4 4 3 4 4 3 3 3 4 1 3 3 3 8 8 7 7 9 6 11 12 12 13 16 17 13 13 13 13 14 13
13 17 6 13 16 17 15 9 4 2 3 4 7 5 4 3 6 6 6 7 3 5 3 4 3 3 4 2 4 4 1 4 2 2 4 5 9 9 9 9 8 5 11 11 11 12 13 14 14 12 12 12 12 13
13 4 7 13 18 17 15 4 5 5 5 5 5 6 8 4 4 5 4 4 2 4 5 2 4 2 1 4 3 2 2 4 4 1 4 7 10 10 9 10 9 8 11 11 12 12 12 13 13 13 12 11 12 12
5 2 11 17 12 10 2 3 4 4 8 7 6 4 5 5 5 4 5 5 4 4 3 2 2 5 3 4 2 2 3 5 3 4 6 8 10 9 9 13 12 12 11 12 11 12 13 13 12 10 13 13 12 12
5 8 19 20 8 4 5 6 4 5 8 5 6 6 6 5 5 7 5 4 4 4 3 3 5 4 4 2 4 4 3 3 5 7 8 10 11 9 10 11 11 12 12 12 12 9 10 11 10 10 10 11 10 10
14 18 20 19 7 3 5 3 4 5 5 1 4 6 5 5 3 6 8 7 7 4 5 4 3 1 1 2 2 3 5 6 8 8 8 8 9 9 9 10 9 9 11 10 7 8 10 10 9 9 9 9 10 10
7 8 11 4 1 3 3 2 5 4 4 4 3 4 5 4 6 8 7 6 6 5 5 5 4 3 1 1 1 0 7 8 9 10 12 10 9 9 8 9 11 6 6 9 8 7 7 9 10 10 10 10 10 10
4 7 3 3 3 3 4 4 4 2 4 4 4 5 5 7 7 7 5 6 5 7 5 5 3 3 4 4 4 4 10 12 7 8 7 9 9 8 8 7 9 10 8 8 9 9 8 8 8 10 9 9 9 9
8 2 3 3 4 5 5 3 6 4 5 3 3 4 4 4 3 3 4 5 5 2 3 3 3 2 1 4 5 6 10 13 8 8 8 7 7 8 9 10 9 10 11 10 10 10 10 11 9 10 10 10 9 10
5 4 4 5 6 4 3 5 4 3 4 6 4 4 4 4 3 4 4 3 3 3 4 6 5 5 4 6 5 7 8 8 9 9 7 6 6 9 10 10 9 9 10 10 10 10 11 12 11 10 11 11 11 11
3 6 4 4 5 5 5 4 6 6 6 7 5 5 4 4 5 5 4 2 3 4 4 5 5 4 3 3 3 5 10 9 10 9 6 7 7 8 8 8 9 9 10 11 11 12 12 12 11 12 12 12 12 13
4 7 5 5 4 5 5 4 6 7 5 5 6 2 3 3 2 2 2 2 2 3 3 4 4 3 2 2 2 3 7 8 8 9 8 6 8 9 10 11 10 10 11 11 12 14 14 14 13 14 12 12 8 11
4 5 4 3 3 3 4 4 4 4 4 4 2 4 4 4 3 3 3 3 3 4 3 2 4 3 1 2 5 3 4 7 9 8 8 9 9 7 8 11 12 10 11 14 13 14 15 14 14 13 12 12 13 12
3 3 5 7 5 4 3 3 3 4 3 2 3 3 0 1 3 2 3 4 2 5 8 6 6 5 5 4 4 3 5 6 7 6 5 5 5 6 7 6 9 15 12 13 13 13 12 13 13 14 14 13 12 13
4 3 5 6 5 4 3 4 4 2 3 3 2 1 0 2 3 2 4 6 7 5 2 3 4 4 7 6 6 5 1 6 7 8 12 8 7 7 8 6 7 10 11 11 6 6 11 10 12 12 14 12 11 11
4 4 4 4 5 5 3 2 3 3 3 3 1 3 4 2 1 2 4 4 3 4 6 6 4 1 3 8 5 5 5 5 2 7 8 8 7 7 9 10 8 10 10 11 11 8 5 5 4 7 9 10 9 10
1 4 3 4 4 2 2 2 4 3 1 3 4 5 7 6 6 5 5 3 3 4 4 5 6 5 6 6 5 5 5 5 5 8 5 4 7 8 11 13 10 8 9 10 9 9 8 7 9 11 12 13 14 12
4 6 4 5 3 1 2 2 2 1 3 4 6 7 6 5 5 3 4 4 3 6 4 4 6 6 5 4 3 5 4 3 3 4 5 3 3 3 9 11 11 8 9 9 7 7 8 8 8 11 12 15 14 16
3 4 5 2 1 2 2 1 4 3 2 2 3 2 3 3 4 3 3 5 5 5 5 5 4 5 4 5 4 4 3 4 6 4 3 3 2 2 3 8 10 9 10 11 10 9 11 13 11 12 11 9 10 12
Wind_Direction
280 278 278 275 264 252 240 249 269 288 301 255 238 241 255 259 304 293 317 240 279 272 292 265 277 267 281 260 302 337 321 39 296 355 342 347 309 342 309 10 336 347 321 359 333 2 39 351 341 21 311 312 110 68
284 282 280 280 273 256 239 237 260 281 289 236 231 244 232 235 247 279 266 126 217 240 280 310 281 268 262 268 298 287 293 302 321 322 350 307 313 322 332 358 1 12 23 307 332 16 304 302 319 316 325 47 85 103
287 285 284 278 273 261 236 233 253 274 280 218 212 240 251 258 249 274 287 295 278 268 280 239 243 229 232 239 234 240 230 277 312 359 301 283 281 327 319 37 296 347 36 276 290 50 329 357 356 0 46 82 101 98
287 285 283 278 275 258 218 227 243 254 261 206 199 217 247 258 249 257 266 292 252 281 287 316 221 259 298 227 220 221 260 314 291 275 255 276 284 38 321 306 346 342 308 324 284 304 315 11 13 22 56 88 88 85
286 285 284 280 274 221 214 235 246 257 234 192 196 207 238 261 273 261 254 241 213 275 307 306 300 274 201 234 233 228 237 253 281 275 264 273 314 316 274 243 89 327 318 336 329 330 14 11 26 44 59 84 102 102
288 284 282 276 237 205 215 231 234 253 191 195 195 211 247 263 264 268 205 150 203 196 275 297 349 280 233 247 256 248 215 220 248 288 269 277 152 317 297 311 71 348 314 341 345 20 53 52 49 59 76 77 85 96
292 286 282 250 210 212 223 242 252 204 182 187 197 208 243 253 256 259 354 71 160 143 254 281 287 200 282 276 234 249 166 203 259 291 255 312 337 332 309 334 332 319 315 340 117 113 37 41 52 57 75 83 86 86
301 287 239 208 217 232 241 237 223 183 172 184 196 218 237 239 258 264 217 206 159 215 245 275 283 263 145 300 324 138 224 186 222 299 319 321 320 314 10 323 325 348 15 65 61 68 81 72 67 64 83 93 86 90
299 280 267 250 236 246 238 230 165 166 166 152 293 277 231 221 221 123 107 149 173 283 275 245 274 304 178 290 296 219 39 280 278 275 359 311 336 7 330 324 345 45 84 108 91 83 80 74 64 71 82 81 88 83
288 285 278 254 245 253 236 156 156 141 121 327 234 219 222 199 91 134 186 158 174 208 228 258 248 268 309 329 305 313 153 270 288 65 263 332 44 311 332 18 347 58 99 109 104 94 99 87 76 75 77 79 82 84
293 283 281 267 244 218 154 148 148 117 106 209 218 222 69 110 186 207 221 211 168 213 216 240 250 280 153 297 338 30 326 346 278 71 304 336 1 342 18 104 90 65 79 101 102 112 101 103 100 94 95 97 100 102
311 287 285 276 252 166 164 159 156 187 216 357 340 255 208 208 211 233 207 203 213 235 178 224 233 231 294 258 263 144 296 285 315 8 272 298 83 7 19 91 88 125 111 113 114 117 121 112 106 103 101 100 107 107
310 304 292 294 193 168 164 155 156 123 172 173 206 219 216 182 224 205 204 206 214 191 186 202 238 246 173 218 254 150 247 255 317 245 304 352 112 113 104 113 100 102 96 107 117 118 121 113 118 115 117 131 119 108
300 299 299 312 167 166 161 164 160 153 228 222 187 219 219 198 219 200 228 211 140 218 198 253 267 237 204 235 178 263 167 298 266 279 259 59 147 140 126 123 122 112 115 122 125 126 123 124 130 132 127 124 124 127
306 310 290 294 196 162 153 141 147 202 236 230 220 235 218 246 267 239 243 245 211 252 247 234 224 245 221 247 223 142 191 243 228 254 7 97 147 149 139 141 130 136 148 128 128 133 131 132 131 126 128 125 124 120
308 304 242 181 162 150 144 151 157 226 246 245 233 256 230 264 240 226 226 237 209 229 211 238 244 240 229 276 237 208 218 229 214 327 70 154 154 145 138 130 137 160 129 129 128 133 131 130 127 124 124 125 126 125
309 246 172 160 144 137 136 142 194 214 240 234 237 236 267 291 270 235 234 248 210 224 230 194 224 204 94 238 250 191 306 355 11 79 141 166 153 143 144 148 160 164 135 133 135 136 132 129 133 133 130 129 128 124
247 224 173 142 125 132 153 231 207 230 244 236 245 257 226 258 268 225 219 232 235 230 233 244 315 225 233 253 295 289 339 65 356 121 141 138 139 144 158 158 167 135 134 136 137 132 137 142 142 134 132 133 128 129
219 192 150 142 148 163 177 189 226 243 234 256 254 254 248 257 235 256 271 229 257 282 274 230 244 242 238 277 323 323 61 123 143 141 138 144 145 169 159 142 132 131 132 133 142 145 145 153 135 143 139 148 141 143
181 168 157 169 185 195 182 207 208 262 260 44 243 247 234 246 232 222 226 225 223 215 213 228 245 296 291 326 316 334 90 143 138 134 131 136 161 133 145 139 130 131 136 143 150 140 140 137 144 146 150 141 147 145
119 141 142 133 191 274 279 240 224 245 291 258 263 250 251 209 226 221 222 205 207 225 228 234 232 264 120 121 38 190 131 152 148 143 148 153 143 137 155 162 148 160 153 145 152 139 156 149 148 144 150 154 145 148
109 114 110 196 224 214 266 233 278 340 248 277 269 232 247 211 210 215 202 203 231 232 220 263 267 237 192 198 183 200 141 153 156 143 166 159 165 164 183 172 163 166 166 167 156 155 156 161 156 148 153 135 147 140
86 113 156 172 222 205 253 194 234 206 248 221 217 232 209 212 197 178 224 213 224 205 227 223 157 179 213 137 141 136 153 157 168 177 181 173 145 183 183 177 169 162 165 165 166 180 172 156 163 158 135 153 145 136
151 169 201 209 211 229 200 210 217 237 235 232 218 241 191 186 165 214 240 200 151 139 180 177 184 176 188 202 187 152 170 169 164 187 183 160 195 162 167 172 172 172 167 168 172 163 152 165 156 158 159 156 153 155
175 185 213 208 206 228 222 212 205 210 239 215 233 233 181 167 201 208 221 154 158 187 165 191 201 196 221 228 145 150 163 179 166 175 192 196 185 165 168 168 171 172 162 166 169 163 165 157 174 169 167 166 165 164
208 193 210 211 191 224 202 236 212 213 220 211 217 245 192 216 202 192 113 67 102 138 173 200 214 157 182 253 258 195 171 190 183 179 174 193 194 178 169 165 162 161 169 170 167 167 170 169 171 170 171 166 161 169
234 200 190 234 285 240 249 243 250 264 235 231 205 196 200 170 197 97 108 63 55 43 67 55 77 79 15 278 242 203 171 181 198 198 160 172 206 215 171 166 170 165 173 168 171 171 169 171 173 177 178 175 178 189
267 265 223 181 213 235 286 280 273 255 244 211 237 200 338 117 79 53 53 80 98 83 75 80 86 73 54 4 326 224 174 173 133 110 123 154 163 201 168 171 178 149 173 173 173 173 175 179 182 184 188 188 186 193
229 211 221 211 208 215 225 234 247 266 343 337 44 114 238 333 341 110 122 79 103 94 79 81 82 86 92 85 41 17 287 167 155 164 175 166 159 177 185 159 144 174 177 173 174 175 188 196 197 197 199 203 201 194
206 199 226 216 225 218 222 247 327 47 55 24 66 166 142 70 311 193 180 175 178 147 143 142 139 121 51 77 68 35 31 11 287 182 179 174 172 158 190 186 195 175 168 171 173 155 85 163 155 187 198 197 194 191
171 199 230 239 248 219 11 19 53 47 160 149 221 134 123 129 107 66 36 77 120 117 111 91 80 80 66 58 33 49 41 30 33 69 52 115 153 159 184 199 183 196 180 171 177 178 176 191 193 189 190 191 188 193
189 207 221 225 198 127 349 63 11 33 88 89 135 143 143 136 105 72 357 334 93 93 75 80 83 70 47 59 44 76 69 66 53 33 60 96 96 161 192 208 220 197 212 201 200 219 219 220 200 196 197 202 198 199
215 210 232 265 339 180 62 168 195 107 56 122 128 127 90 76 91 89 63 23 60 86 81 68 58 66 59 56 53 74 66 34 32 50 51 62 35 294 265 192 186 191 193 231 238 238 239 220 205 208 205 203 199 198